Miscellaneous Local Product
Issued by NWS North Platte, NE

Home | Current Version | Previous Version | Text Only | Print | Product List | Glossary On
Versions: 1 2 3 4 5 6 7 8 9 10 11 12 13 14 15 16 17 18 19 20 21 22 23 24 25 26 27 28 29 30 31 32 33 34 35 36 37 38 39 40 41 42 43 44 45 46 47 48 49 50
000
AXUS43 KLBF 290210
MISLBF


WESTERN AND NORTH CENTRAL NEBRASKA HOURLY WEATHER ROUNDUP
NATIONAL WEATHER SERVICE NORTH PLATTE NE
900 PM CDT MON JUL 28 2014

***STATIONS NOT REPORTING VARIABLES SUCH AS SKY/WEATHER OR
PRESSURE ARE PROVIDED BY THE NEBRASKA DEPARTMENT OF
ROADS...RAWS...AND APRS NETWORKS...AND ARE NOT UNDER
NATIONAL WEATHER SERVICE QUALITY CONTROL***

...OBSERVATIONS IN AND NEAR THE EASTERN PANHANDLE OF NEBRASKA...

CITY           SKY/WX    TMP DP  RH WIND       PRES   REMARKS
PINE RIDGE     CLEAR     74  56  53 E10       30.21S
CHADRON        CLEAR     80  55  42 E15       30.18R
ALLIANCE       CLEAR     79  57  46 E15       30.20S
SIDNEY         MOCLDY    79  54  41 SE9       30.24R
WHITECLAY        N/A     76  54  45 E5          N/A
RUSHVILLE        N/A     79  50  35 E15         N/A
GORDON           N/A     78  55  43 E12         N/A
CRESCENT LAKE    N/A     77  58  51 E9G16       N/A
LISCO            N/A     85  54  34 E14         N/A
BIG SPRINGS      N/A     84  61  45 E8          N/A
$$

...OBSERVATIONS IN NORTH CENTRAL NEBRASKA...

CITY           SKY/WX    TMP DP  RH WIND       PRES   REMARKS
VALENTINE      CLEAR     74  52  46 NE8       30.22S
THEDFORD       CLEAR     75  57  54 SE6       30.23S
AINSWORTH      CLEAR     68  57  68 E6        30.23S
O`NEILL        CLEAR     68  55  62 E6        30.23R
ORD            CLEAR     69  58  67 E3        30.20S
BROKEN BOW     CLEAR     70  59  68 E7        30.22S
BROWNLEE         N/A     77  50  39 E7          N/A
SPRINGVIEW       N/A     73  53  50 CALM        N/A
DUNNING          N/A     73  59  60 E6          N/A
ROSE             N/A     72  61  67 NE5         N/A
NEWPORT          N/A     68  59  74 E5          N/A
SARGENT          N/A     71  56  58 CALM        N/A
COMSTOCK         N/A     73  62  68 E6          N/A
CHAMBERS         N/A     70  51  50 E5          N/A
EWING            N/A     65  58  77 CALM        N/A
$$

...OBSERVATIONS IN SOUTHWEST NEBRASKA AND FAR NORTHEAST COLORADO...

CITY           SKY/WX    TMP DP  RH WIND       PRES   REMARKS
WRAY             N/A     80  48  32 S8        30.22R
HOLYOKE        FAIR      79  63  57 SE7       30.20F
IMPERIAL       MOCLDY    82  52  35 S8        30.19S
OGALLALA       CLEAR     75  59  58 E14       30.20S
NORTH PLATTE   CLEAR     72  59  63 SE8       30.20S
MCCOOK         PTCLDY    76  59  55 E15       30.18S
LEXINGTON      CLEAR     73  61  66 E8        30.20S
PAXTON           N/A     80  63  56 E5          N/A
SUTHERLAND       N/A     76  66  72 E8          N/A
BRADY            N/A     74  59  59 CALM        N/A
CALLAWAY         N/A     78  63  60 E8          N/A
$$

...SOME WEATHER OBSERVATIONS FROM AROUND THE REGION...

CITY           SKY/WX    TMP DP  RH WIND       PRES   REMARKS
DENVER         CLOUDY    75  54  47 S13       30.26S
LARAMIE        PTCLDY    72  50  45 SE7       30.36S
CHEYENNE       LGT RAIN  65  58  78 SE12G23   30.33R
SCOTTSBLUFF    CLEAR     79  61  53 E8        30.19R
RAPID CITY     PTCLDY    70  54  56 E8        30.23S
PIERRE         CLEAR     70  55  59 NE8       30.21R
WINNER         FAIR      73  50  44 E7        30.22R
SIOUX FALLS    PTCLDY    65  54  67 N3        30.21R
OMAHA          PTCLDY    69  56  62 NW6       30.17S
GRAND ISLAND   CLEAR     70  57  63 E7        30.22S
KANSAS CITY    PTCLDY    70  60  70 NW5       30.16S
WICHITA        PTCLDY    81  55  40 N5        30.15R
HAYS           PTCLDY    79  57  47 E9        30.18R
LIBERAL        MOCLDY    73  55  53 SW6       30.25S
GOODLAND       MOCLDY    74  55  51 S10       30.24S
$$



USA.gov is the U.S. government's official web portal to all federal, state and local government web resources and services.